FENGYUN 1C DEB, 36743

Orbit data source: Space-Track

FENGYUN 1C DEB, 36743 is space debris in SSO originally from a launch on Mon, 10 May 1999 UTC launched from the Taiyaun Space Center, China (TSC). Fengyun 1C debris stems from the Chinese weather satellite Fengyun-1C, which was intentionally destroyed by a Chinese anti-satellite missile in 2007. This event dramatically increased the amount of space debris, with thousands of trackable fragments posing hazards to satellites and human spaceflight. The Fengyun 1C debris cloud has become a focal point in discussions about space sustainability and the need for international regulations to prevent the creation of new debris.

Loading next visibility...
Identifier
36743, 1999-025EBR
Orbit
SSO
Country
Flag of CNCN / PRC
Related business
Manufacturer
Unknown
Mission
Spacecraft
Bus & Motor
Unknown
Mass
Unknown
Launch date (UTC)
1999-05-10 (27 years ago)
Launch vehicle
Unknown
Launch site
Taiyaun Space Center, China (TSC)
Object type
Payload
Rocket body
Debris
Shape & HBR
Unknown shape, 0.1 m
Radar Cross Section
Small (<0.1 m²)

Expand to show TLE details & history
Last TLE update: 3 weeks ago

TLE from 3 weeks ago
0 FENGYUN 1C DEB
1 36743U 99025EBR 26143.87434198  .00001915  00000-0  74942-3 0  9993
2 36743  98.6380 195.9836 0045505 254.9210 104.6935 14.30118502630543
Epoch: 2026-05-23T20:59Z
TLE epoch observation values (Epoch: 2026-05-23T20:59:03.147Z)
Latitude
0.00001°
Longitude
-0.26409°
Altitude
802.681 km
Speed
7.448 km/s
True Right ascension
13h 03m 56s
True Declination
0° 00' 00"
Sunlit
Object was in full shadow at epoch
Visualization orbit readout
Latitude
Unknown
Longitude
Unknown
Altitude
Unknown
Speed
Unknown
Apparent Right ascension
Unknown
Apparent Declination
Unknown
Sunlit
N/A
Visualization observer readout
Local Sidereal Time
01:58:13
Azimuth
Unknown
Elevation
Unknown
Doppler factor
Unknown
Orbital elements
Apogee altitude
821.088 km
Perigee altitude
755.865 km
Semi-major axis
7,166.613 km
Eccentricity
0.00455
Inclination
98.638°
RAAN
195.9836°
Arg. of periapsis
254.921°
True anomaly
105.19716°
Mean anomaly
104.6935°
Eccentric anomaly
104.9454°
Mean motion
3.57744 °/min
Orbital period
100.63 mins
BSTAR
0.00074942
Loading maneuver chart data...
Computing Atmospheric mass density...
Loading historical data...
Loading historical data...
Loading historical data...
Loading historical data...
Loading historical data...
Loading historical data...
Loading historical data...

Documentation

Showing up to 5 results
|